Starlink 3895

operational
NORAD ID: 52583 Int'l Des: 2022-051 Owner: SPXS Country: US Constellation: starlink
LEOCIRCULAR

关于 Starlink 3895

正在加载描述...

实时位置

正在加载3D地球...

即将过境

高度历史

Altitude vs Time

uPlot chart will show altitude changes over time

两行轨道根数

1 52583U 22051AZ 25261.18137730 -.00002013 00000-0 -10836-3 0 9998
2 52583 53.2179 173.5401 0001984 138.6993 221.4149 15.08844627185545
Epoch: Sep 18, 2025 • Age: 18 hours

当前状态

高度 541.5 km
速度 7.60 km/s
星下点 37.49°N, 18.96°W
发射日期 May 13, 2022
运行时间 3.3 years
类型 internet

技术详情

分类 Payload
质量 297.00 kg
干质量 275.00 kg
总质量 297.00 kg
长度 0.20 m
直径 2.80 m
跨度 9.00 m
形状 Box + pan
制造商 SPXS
平台类型 Starlink
阶段状态 In Orbit
所有者/国家 SPXS/US

大型星座

Loading constellations...